sat.trackr.live / text

‹ back to catalog

STARLINK-32388

NORAD 62144 · 2024-224F

PAYLOAD ACTIVE UNKNOWN

§ Identity

Operator
Country
US
Launch date
2024-11-30
Launch site
AFETR
Launch vehicle
Mass (kg)
RCS (m²)

Purposes: comms

External: N2YO · Heavens-Above · Gunter

§ Orbital elements

Epoch: 2026-09-21T01:33:37.767744Z

Period
94.27 min
Inclination
43.0019°
Eccentricity
0.0001354
Mean motion
15.27592530 rev/d
Perigee alt
482.1 km
Apogee alt
483.9 km
Semi-major
6,861.1 km
B*
3.3720e-4
RAAN
142.2085°
Arg perigee
276.1527°
Mean anomaly
83.9170°
Rev number
10,227

§ Raw data

STARLINK-323881 62144U 24224F   26264.06502046  .00009032  00000+0  33720-3 0  99952 62144  43.0019 142.2085 0001354 276.1527  83.9170 15.27592530102270

JSON: /api/v1/satellites/62144 · /tle

For live sub-satellite position, see the globe view (requires WebGL).

§ Visibility from observer

Set your observer location to see the next 7 days of passes ≥ 10°. The values pass through the URL so the page stays shareable.

No JS? Fill the form by hand. The geolocation button needs JavaScript.